[[{"header":{"parameterUnit":"m.s-1","parameterCategory":1,"la1":30.2991,"la2":30.254,"lo1":-89.0895,"lo2":-89.0444,"dy":0.0017,"dx":0.0017,"nx":28,"ny":28,"refTime":"2024-07-10T21:00:00:Z","depth":0,"parameterNumber":2,"parameterNumberName":"U-component_of_WINDS"},"data":[0,0,0,0,0,0,0,0,0,0,0,0,0,0,0,0,0,0,0,0,0,0,0,0,0,0,0,0,0,0,0,0,0,0,0,0,0,0,0,0,0,0,0,0,0,0,0,0,0,0,0,0,0,0,0,0,0,0,-3.193,-3.193,0,-3.1926,-3.1926,-3.1926,-3.1915,-3.1915,-3.1915,-3.1915,-3.1911,-3.1911,-3.1911,0,0,0,0,0,0,0,0,0,0,0,0,0,-3.1926,-3.1926,-3.193,-3.193,-3.1929,-3.1926,-3.1926,-3.1926,-3.1916,-3.1915,-3.1915,-3.1915,-3.1911,-3.1911,-3.1911,0,0,0,0,0,0,0,0,0,0,0,0,0,-3.1926,-3.1926,-3.193,-3.1924,-3.1923,-3.1926,-3.1926,-3.1926,-3.1916,-3.1915,-3.1915,-3.1915,-3.1911,-3.1911,-3.1911,-3.192,0,0,-3.1912,-3.1912,0,0,0,0,0,0,0,0,-3.1926,-3.1926,-3.1925,-3.1924,-3.1924,-3.1921,-3.1924,-3.1924,-3.1916,-3.1918,-3.1915,-3.1914,-3.1915,-3.1915,-3.1915,-3.192,-3.192,-3.1912,-3.1912,-3.1912,-3.1912,0,0,0,0,0,0,0,-3.1926,-3.1926,-3.1928,-3.1925,-3.1924,-3.1921,-3.1921,-3.1924,-3.1919,-3.1918,-3.1917,-3.1917,-3.1914,-3.1915,-3.1915,-3.1919,-3.1912,-3.1912,-3.1912,-3.1912,-3.193,-3.1931,0,0,0,0,0,0,-3.1927,-3.1926,-3.1928,-3.1928,-3.1924,-3.1922,-3.1921,-3.1922,-3.1919,-3.1918,-3.1917,-3.1917,-3.1914,-3.1914,-3.1914,-3.1923,-3.1912,-3.1912,-3.1913,-3.193,-3.193,-3.1931,0,0,0,0,0,0,-3.1927,-3.1927,-3.1928,-3.1927,-3.1927,-3.1922,-3.1923,-3.1922,-3.1922,-3.1918,-3.1917,-3.1919,-3.1914,-3.1914,-3.1918,-3.1923,-3.1913,-3.1913,-3.193,-3.193,-3.1931,-3.1941,0,0,0,0,0,0,-3.1927,-3.1927,-3.193,-3.1927,-3.1927,-3.1933,-3.1924,-3.1922,-3.1923,-3.1922,-3.1919,-3.1918,-3.1914,-3.1918,-3.1919,-3.1923,-3.1913,-3.1929,-3.193,-3.193,-3.1941,-3.1942,-3.1944,0,0,0,0,0,-3.1927,-3.1934,-3.1931,-3.1931,-3.1931,-3.1933,-3.1933,-3.1928,-3.1923,-3.1926,-3.1923,-3.1918,-3.1923,-3.1919,-3.1919,-3.1924,-3.1929,-3.193,-3.193,-3.194,-3.1942,-3.1944,0,0,0,0,0,0,-3.1938,-3.1933,-3.193,-3.1936,-3.1935,-3.1931,-3.1935,-3.193,-3.1931,-3.193,-3.1923,-3.1923,-3.1928,-3.1926,-3.1922,-3.1931,-3.1925,-3.1926,-3.1932,-3.1934,-3.1935,-3.1935,-3.1913,0,0,0,0,0,-3.1941,-3.1943,-3.1939,-3.1945,-3.1944,-3.194,-3.194,-3.1937,-3.1935,-3.1935,-3.1932,-3.1931,-3.1932,-3.1933,-3.1934,-3.1941,-3.1939,-3.1944,-3.1946,-3.1947,-3.1947,-3.195,-3.1952,-3.1933,-3.1933,-3.1933,0,0,-3.1947,-3.1945,-3.1947,-3.1947,-3.1945,-3.1947,-3.1939,-3.1942,-3.1943,-3.1935,-3.1939,-3.1937,-3.1935,-3.1941,-3.1943,-3.194,-3.1952,-3.1948,-3.1949,-3.1949,-3.1951,-3.1953,-3.1954,-3.1934,-3.1934,-3.1934,0,0,-3.196,-3.1959,-3.1963,-3.1962,-3.196,-3.1957,-3.1958,-3.1955,-3.1953,-3.1957,-3.1951,-3.1952,-3.1955,-3.1953,-3.1953,-3.1965,-3.196,-3.1966,-3.1973,-3.1976,-3.1978,-3.1979,-3.1982,-3.1984,-3.1967,-3.1967,-3.1967,0,-3.1968,-3.197,-3.1966,-3.1968,-3.1968,-3.1961,-3.1965,-3.1965,-3.1963,-3.1963,-3.196,-3.1962,-3.1961,-3.1965,-3.1968,-3.1968,-3.1969,-3.1966,-3.1978,-3.1979,-3.198,-3.1983,-3.1985,-3.1967,-3.1967,-3.1967,-3.1967,0,-3.198,-3.1982,-3.1986,-3.1985,-3.1985,-3.1989,-3.1984,-3.1985,-3.1982,-3.1979,-3.1982,-3.198,-3.198,-3.1981,-3.1978,-3.1985,-3.1983,-3.1979,-3.1972,-3.1982,-3.1985,-3.1987,-3.1968,-3.1968,-3.1968,-3.1968,0,0,-3.1999,-3.1995,-3.1996,-3.1995,-3.1993,-3.1994,-3.1997,-3.1997,-3.1998,-3.1998,-3.2,-3.2002,-3.1997,-3.1997,-3.1994,-3.1996,-3.2005,-3.1991,-3.1991,-3.1993,-3.2012,-3.2015,-3.2016,-3.2002,-3.2002,-3.2002,-3.2012,0,-3.201,-3.2015,-3.201,-3.2016,-3.2017,-3.2011,-3.2014,-3.2012,-3.201,-3.2011,-3.2008,-3.2009,-3.2004,-3.2004,-3.2006,-3.2003,-3.2008,-3.2003,-3.2003,-3.2003,-3.2003,-3.2018,-3.2021,-3.203,-3.2013,-3.2013,-3.2014,0,-3.2023,-3.2023,-3.2029,-3.2025,-3.2026,-3.2028,-3.2028,-3.2029,-3.2027,-3.2026,-3.2025,-3.2021,-3.2024,-3.2018,-3.2021,-3.2017,-3.2017,-3.2016,-3.2016,-3.2015,-3.2008,-3.2017,-3.2033,-3.2034,-3.2015,-3.2015,-3.2015,0,-3.2035,-3.2036,-3.2039,-3.2039,-3.2036,-3.2038,-3.2036,-3.2034,-3.2035,-3.2034,-3.2034,-3.2034,-3.2034,-3.2034,-3.203,-3.2026,-3.2033,-3.2027,-3.2031,-3.2031,-3.2032,-3.2032,-3.2048,-3.2034,-3.2034,-3.2034,-3.2034,0,-3.2047,-3.205,-3.2045,-3.2047,-3.205,-3.2046,-3.2049,-3.2047,-3.2046,-3.2047,-3.2042,-3.2043,-3.2038,-3.2039,-3.2036,-3.2038,-3.2039,-3.2037,-3.2036,-3.2037,-3.2037,-3.2036,-3.2035,-3.2034,-3.2034,-3.2034,-3.2034,0,-3.206,-3.2057,-3.206,-3.2056,-3.2056,-3.2059,-3.2056,-3.2057,-3.2055,-3.2057,-3.2057,-3.2053,-3.2053,-3.2049,-3.2049,-3.2047,-3.2051,-3.2049,-3.2051,-3.2051,-3.2055,-3.2054,-3.207,-3.2071,-3.2057,-3.2057,-3.2057,0,-3.2068,-3.207,-3.2067,-3.2068,-3.2067,-3.2068,-3.2068,-3.2063,-3.2064,-3.2062,-3.2064,-3.2064,-3.2064,-3.2065,-3.2062,-3.2062,-3.206,-3.2065,-3.206,-3.206,-3.2059,-3.2058,-3.2058,-3.2066,-3.2066,-3.2066,-3.2066,0,-3.2081,-3.2079,-3.2079,-3.2079,-3.2079,-3.2079,-3.2078,-3.2079,-3.2074,-3.2075,-3.2075,-3.2075,-3.2075,-3.2075,-3.2074,-3.2073,-3.2069,-3.2068,-3.2069,-3.207,-3.2071,-3.2069,-3.2054,-3.2068,-3.2068,-3.2068,-3.2068,-3.2067,-3.2091,-3.2093,-3.2091,-3.2091,-3.209,-3.209,-3.2091,-3.2088,-3.2089,-3.2088,-3.2086,-3.2087,-3.2085,-3.2084,-3.2083,-3.2083,-3.208,-3.2082,-3.2082,-3.2082,-3.2082,-3.2071,-3.2083,-3.2083,-3.2083,-3.2083,-3.2083,0,-3.2103,-3.2102,-3.2102,-3.2101,-3.2102,-3.2098,-3.2097,-3.2097,-3.2098,-3.2097,-3.2097,-3.2098,-3.2098,-3.2095,-3.2094,-3.2095,-3.2093,-3.2095,-3.2095,-3.2094,-3.2085,-3.2084,-3.2097,-3.2097,-3.2097,-3.2097,-3.2097,-3.2097,-3.211,-3.2112,-3.211,-3.2112,-3.211,-3.2111,-3.2111,-3.211,-3.2109,-3.211,-3.211,-3.2108,-3.2106,-3.2106,-3.2106,-3.2105,-3.2104,-3.2107,-3.2105,-3.2097,-3.2095,-3.2094,-3.2093,-3.2107,-3.2107,-3.2114,-3.2114,-3.2114]},{"header":{"parameterUnit":"m.s-1","parameterCategory":1,"la1":30.2991,"la2":30.254,"lo1":-89.0895,"lo2":-89.0444,"dy":0.0017,"dx":0.0017,"nx":28,"ny":28,"refTime":"2024-07-10T21:00:00:Z","depth":0,"parameterNumber":3,"parameterNumberName":"V-component_of_WINDS"},"data":[0,0,0,0,0,0,0,0,0,0,0,0,0,0,0,0,0,0,0,0,0,0,0,0,0,0,0,0,0,0,0,0,0,0,0,0,0,0,0,0,0,0,0,0,0,0,0,0,0,0,0,0,0,0,0,0,0,0,0.1659,0.1662,0,0.1917,0.192,0.1923,0.2015,0.2014,0.2013,0.2012,0.2285,0.2293,0.2301,0,0,0,0,0,0,0,0,0,0,0,0,0,0.1256,0.1263,0.1659,0.1662,0.1665,0.1916,0.192,0.1924,0.2015,0.2014,0.2013,0.2012,0.2282,0.2292,0.2302,0,0,0,0,0,0,0,0,0,0,0,0,0,0.1464,0.1265,0.1658,0.1741,0.1751,0.1916,0.192,0.1925,0.2015,0.2014,0.2012,0.2011,0.2279,0.2291,0.2303,0.2407,0,0,0.2341,0.2346,0,0,0,0,0,0,0,0,0.1453,0.1479,0.1726,0.1736,0.1747,0.1932,0.1878,0.2087,0.2016,0.1915,0.2012,0.201,0.2169,0.2191,0.2242,0.242,0.2432,0.2342,0.2349,0.2354,0.2358,0,0,0,0,0,0,0,0.1438,0.1469,0.1761,0.1729,0.1742,0.1769,0.1797,0.1918,0.2048,0.1924,0.1931,0.196,0.2175,0.223,0.2249,0.2436,0.2341,0.2352,0.236,0.2365,0.2717,0.2719,0,0,0,0,0,0,0.1408,0.1456,0.1753,0.1769,0.1593,0.1777,0.1808,0.1874,0.2046,0.2071,0.1961,0.1963,0.221,0.2235,0.2259,0.2395,0.2354,0.2366,0.2373,0.2715,0.2717,0.2719,0,0,0,0,0,0,0.1399,0.1434,0.1743,0.1615,0.1656,0.1785,0.1859,0.188,0.1935,0.2074,0.2099,0.1993,0.221,0.2242,0.237,0.2406,0.2371,0.2382,0.2712,0.2716,0.2718,0.2665,0,0,0,0,0,0,0.1387,0.143,0.1468,0.1615,0.1662,0.1845,0.1861,0.1886,0.1955,0.1961,0.2111,0.2134,0.2211,0.2351,0.2382,0.2422,0.2392,0.271,0.2714,0.2717,0.2664,0.2666,0.2667,0,0,0,0,0,0.1373,0.1444,0.1469,0.1505,0.1712,0.1847,0.1875,0.1959,0.1957,0.1999,0.2089,0.213,0.2397,0.2364,0.2399,0.2443,0.2708,0.2713,0.2717,0.2664,0.2665,0.2667,0,0,0,0,0,0,0.1301,0.1465,0.1495,0.1615,0.1716,0.1862,0.1917,0.1958,0.2065,0.2066,0.2169,0.2202,0.2323,0.2396,0.2357,0.2555,0.2555,0.2567,0.2502,0.2505,0.2507,0.2487,0.2402,0,0,0,0,0,0.1298,0.1391,0.1531,0.1624,0.1673,0.1786,0.1848,0.1904,0.2015,0.2059,0.2158,0.2266,0.2375,0.2444,0.2552,0.2676,0.2712,0.2724,0.2725,0.2726,0.2735,0.2809,0.2817,0.2734,0.2734,0.2734,0,0,0.1295,0.1397,0.1449,0.1612,0.1697,0.1794,0.1821,0.1922,0.1997,0.2075,0.2201,0.2278,0.2407,0.2533,0.2594,0.2598,0.2766,0.2732,0.2731,0.274,0.2815,0.2822,0.2829,0.2737,0.2737,0.2736,0,0,0.134,0.1424,0.1512,0.1596,0.1724,0.1799,0.182,0.1961,0.2015,0.2143,0.2204,0.2297,0.2481,0.257,0.264,0.2721,0.2764,0.2754,0.2762,0.2833,0.2839,0.2846,0.2877,0.2886,0.2762,0.2762,0.2762,0,0.132,0.1466,0.1552,0.1651,0.1722,0.1795,0.1887,0.1967,0.2124,0.2174,0.2175,0.241,0.2501,0.2651,0.2671,0.2724,0.2755,0.2737,0.2831,0.2838,0.2845,0.2876,0.2888,0.276,0.276,0.2761,0.2761,0,0.1437,0.1538,0.1594,0.1741,0.182,0.1914,0.2019,0.2088,0.2139,0.2215,0.2347,0.246,0.2592,0.2632,0.2683,0.2791,0.279,0.281,0.2812,0.285,0.2881,0.2893,0.2757,0.2758,0.2759,0.2759,0,0,0.1441,0.1637,0.1656,0.1725,0.1873,0.1955,0.2055,0.2182,0.2241,0.2348,0.2437,0.2593,0.2613,0.2692,0.2754,0.2816,0.2877,0.283,0.2835,0.2836,0.3006,0.299,0.3002,0.2906,0.2909,0.2911,0.2996,0,0.1506,0.1683,0.1766,0.1909,0.2005,0.2078,0.2166,0.2268,0.2343,0.2439,0.2523,0.2632,0.2649,0.2698,0.2763,0.2855,0.2913,0.2851,0.2993,0.2997,0.2959,0.3018,0.3002,0.3076,0.3008,0.301,0.3012,0,0.1604,0.1709,0.186,0.1999,0.2043,0.2119,0.2245,0.2334,0.2454,0.2504,0.2593,0.2654,0.2766,0.2761,0.2919,0.2875,0.2939,0.2994,0.2999,0.3016,0.3007,0.3038,0.3102,0.3113,0.3032,0.303,0.3029,0,0.1593,0.1773,0.1888,0.1945,0.2109,0.2162,0.2234,0.2352,0.2424,0.2535,0.2584,0.2707,0.2775,0.2871,0.2965,0.2952,0.3116,0.3118,0.3164,0.3162,0.3195,0.3192,0.3271,0.3235,0.3234,0.3234,0.3234,0,0.1657,0.1747,0.1885,0.1956,0.2061,0.2157,0.226,0.2338,0.2442,0.2533,0.2605,0.2688,0.2807,0.2907,0.2982,0.3103,0.3133,0.318,0.3199,0.3174,0.3168,0.3218,0.3215,0.3237,0.3237,0.3236,0.3235,0,0.1662,0.1758,0.1888,0.2033,0.2072,0.2144,0.227,0.2344,0.2423,0.2536,0.2569,0.2694,0.2816,0.2919,0.308,0.3131,0.3257,0.3279,0.3216,0.3226,0.3267,0.3262,0.3381,0.3403,0.335,0.335,0.3351,0,0.1696,0.1767,0.192,0.1984,0.2054,0.2157,0.2231,0.233,0.2405,0.2548,0.2605,0.2732,0.2838,0.303,0.3138,0.3263,0.329,0.3323,0.3309,0.3282,0.3292,0.3287,0.3296,0.3323,0.3324,0.3324,0.3324,0,0.1747,0.1792,0.1894,0.2014,0.21,0.22,0.2302,0.2351,0.247,0.2552,0.2676,0.2758,0.2922,0.3049,0.3185,0.3264,0.3315,0.3327,0.3345,0.332,0.3281,0.3305,0.3219,0.3324,0.3324,0.3324,0.3324,0.3324,0.177,0.1837,0.1955,0.2068,0.2155,0.225,0.2326,0.2415,0.2519,0.2658,0.2712,0.284,0.2963,0.3151,0.323,0.3334,0.3341,0.3366,0.3373,0.3378,0.3375,0.3264,0.336,0.336,0.336,0.336,0.336,0,0.1826,0.1906,0.2008,0.2148,0.2238,0.2276,0.2392,0.2465,0.2576,0.2684,0.2787,0.2932,0.3056,0.3174,0.3304,0.3365,0.3393,0.3397,0.3394,0.3412,0.336,0.3332,0.3373,0.3373,0.3373,0.3373,0.3373,0.3372,0.1865,0.1982,0.2041,0.2204,0.2285,0.2408,0.2472,0.2561,0.2648,0.2805,0.2907,0.2983,0.3097,0.3237,0.3353,0.3385,0.3431,0.3429,0.3467,0.3417,0.3415,0.3412,0.3387,0.3438,0.3438,0.3511,0.3511,0.3512]}]]